Vorticity
10 10 10 10 10 9 9 9 9 8 8 8 7 7 7 7 6 6 6 5 5 4 4 4 5 7 8 9 7 6 7 8 8 7 8 6 5 6 7 8 6 6 7 10 13 9 6 4 5 3 3 3 2 4 5 4 5 9 1 -5 4 8 6 2 4 6 5 9 8 11 10 4 6 7 8 3 -0 3 7 8 6 9 7 6 6 4 6 7
9 9 10 10 10 10 10 10 10 10 9 9 8 8 8 7 7 7 7 6 7 6 5 4 4 5 6 8 8 7 6 8 10 8 8 7 6 5 6 7 5 6 6 6 11 14 8 4 6 5 4 4 4 4 3 5 3 7 3 -6 -0 5 7 3 6 9 7 11 12 13 7 3 8 5 3 3 3 5 7 7 6 9 7 6 6 4 7 9
9 9 8 9 9 9 10 10 10 10 10 10 10 10 9 9 9 8 8 7 7 7 7 6 5 4 4 6 6 7 7 7 10 10 8 7 8 6 4 5 5 5 6 5 7 14 13 7 6 5 6 3 4 4 3 5 3 6 5 -3 -4 1 6 1 11 13 4 14 11 5 6 4 6 4 3 6 7 5 4 7 6 7 6 5 5 4 8 9
9 9 8 8 8 8 9 9 9 10 10 10 10 10 10 10 10 10 9 9 8 7 7 7 6 6 5 5 5 6 6 6 8 9 8 8 8 8 6 4 4 4 5 7 5 9 15 13 7 4 7 4 4 4 3 5 3 5 4 3 -2 -2 4 1 19 18 0 17 13 1 8 7 3 4 8 6 6 4 4 8 5 7 7 4 5 4 7 8
6 7 7 8 8 8 8 8 8 8 9 9 9 10 9 10 10 10 10 10 10 9 9 8 7 7 6 5 5 6 5 4 6 6 8 10 9 9 8 4 2 3 3 6 7 7 11 16 13 6 6 5 5 3 3 4 2 5 4 4 1 -2 -1 -1 20 16 -4 10 10 3 9 7 1 2 10 3 -0 4 5 7 5 7 7 5 6 2 5 7
3 4 3 5 5 5 6 6 6 7 7 8 8 8 8 9 9 9 9 10 10 11 11 10 9 8 7 7 5 6 5 4 6 6 6 9 9 9 9 7 4 3 3 3 4 5 6 11 16 13 7 5 7 5 4 5 1 5 5 4 4 2 -0 -2 12 12 -1 1 5 10 9 6 3 3 13 5 -1 6 8 8 5 5 8 8 9 4 4 6
3 2 2 2 2 2 3 3 4 4 4 5 6 6 7 7 8 8 8 8 9 10 11 11 11 10 9 9 7 7 6 6 7 5 4 7 9 10 10 9 7 3 1 2 1 4 4 6 12 16 13 7 6 5 4 5 2 5 5 3 4 5 2 -2 5 10 5 -4 0 15 7 2 4 6 16 6 -1 7 7 9 6 5 8 8 9 7 5 4
5 5 4 4 3 3 3 2 2 2 3 3 3 4 5 5 6 7 7 8 8 8 9 10 11 11 11 11 9 9 9 7 6 6 5 5 6 9 10 10 10 7 3 3 1 2 4 4 6 11 15 11 7 5 4 5 3 6 7 3 1 3 4 -1 -6 -2 4 0 1 7 -2 3 14 10 10 3 2 8 7 10 7 4 6 6 9 8 5 5
6 7 7 7 7 6 6 5 5 5 4 4 3 3 3 3 4 4 5 6 7 7 7 8 9 10 10 11 11 11 12 8 5 6 5 6 5 6 9 9 10 9 7 5 2 1 2 3 4 6 11 13 10 6 6 6 3 4 6 4 -1 -2 4 5 -1 -8 -2 3 3 5 1 10 20 8 2 3 3 6 8 10 7 4 6 6 8 8 6 7
6 6 7 8 8 8 8 8 7 7 7 6 6 6 5 4 4 4 4 4 5 5 6 6 7 8 8 9 10 12 14 10 7 8 6 5 6 5 7 9 9 9 11 8 5 2 1 2 2 2 4 9 14 12 9 7 3 1 2 4 2 -3 -2 4 6 -1 -2 3 3 6 5 4 7 4 3 4 2 5 9 9 6 4 6 7 7 8 6 7
7 7 6 7 7 8 8 8 8 8 7 7 7 7 7 6 6 5 5 5 5 5 4 5 5 6 6 7 8 10 11 10 10 11 10 8 8 6 4 6 8 8 9 11 9 5 2 2 1 2 2 2 9 13 13 11 8 6 4 4 6 4 -0 -1 5 3 1 6 4 2 3 0 2 6 6 4 3 6 8 8 7 5 5 7 8 8 7 6
8 8 7 6 7 7 7 8 8 8 8 7 7 7 7 7 7 7 7 6 6 6 6 6 5 5 5 6 6 6 7 9 10 11 12 11 9 8 5 4 6 7 8 10 11 9 6 3 1 3 2 0 2 5 9 13 10 8 7 7 7 7 6 3 6 6 -1 2 6 4 6 7 6 5 6 7 6 4 6 8 7 5 5 8 10 8 7 6
9 9 8 8 8 7 8 8 8 8 8 8 7 7 7 7 7 7 7 7 6 6 6 6 6 6 6 6 6 6 6 7 7 8 10 11 11 11 9 5 4 5 6 7 10 11 9 6 4 3 3 3 2 -0 5 13 12 8 5 5 5 5 7 5 7 11 4 0 3 3 4 8 9 6 6 8 6 3 4 8 8 6 6 8 9 7 7 7
10 10 10 10 9 9 9 9 9 9 9 9 9 8 7 7 7 6 6 6 6 5 5 5 5 5 5 5 6 7 7 7 7 7 7 8 9 11 11 9 6 5 5 5 7 9 10 10 6 4 4 3 3 2 3 7 11 14 12 10 9 6 5 4 4 7 7 3 2 3 2 3 6 5 3 5 6 4 4 7 9 7 7 8 7 8 8 7
12 12 11 10 10 10 10 9 9 8 9 10 10 10 9 8 8 7 6 5 5 4 4 4 4 4 3 4 4 4 5 6 7 7 7 7 7 8 11 12 10 8 6 4 4 6 9 11 9 8 6 4 3 3 3 2 3 9 14 16 16 12 6 4 4 3 4 4 4 6 4 0 2 3 2 4 4 4 6 6 7 8 7 6 5 8 9 7
13 14 13 12 11 10 10 10 10 9 9 9 9 10 10 10 9 8 8 7 6 6 4 4 4 3 3 5 4 3 3 3 4 6 6 7 6 6 8 10 12 11 10 7 5 4 5 8 10 9 8 7 5 3 3 2 2 3 6 11 15 14 8 4 3 5 8 5 2 7 7 4 5 6 7 8 6 4 6 4 4 7 7 7 5 6 9 8
13 13 14 14 13 12 11 10 10 10 10 9 9 9 9 10 10 9 8 8 7 7 6 5 6 4 4 6 4 4 4 2 2 3 4 5 6 6 6 6 8 10 10 10 8 6 4 5 7 9 9 9 7 5 3 2 5 5 3 4 6 10 11 9 6 7 14 14 9 8 4 2 2 3 7 11 7 3 3 4 6 8 7 9 5 3 9 10
12 13 13 13 13 13 12 12 11 10 10 10 10 10 10 9 9 9 9 8 8 7 6 6 6 5 4 6 5 5 6 5 4 3 3 3 4 5 6 6 6 7 9 10 11 10 7 4 4 6 8 9 9 9 9 8 8 7 5 3 2 5 8 11 11 8 13 14 10 8 3 6 9 7 10 10 7 6 4 4 5 7 9 10 6 4 7 7
11 12 12 12 12 11 12 12 12 12 12 11 12 12 12 12 10 10 10 9 9 8 7 7 7 7 7 7 8 9 8 8 7 5 4 3 3 4 5 6 6 5 6 7 10 11 10 8 6 4 6 9 11 12 13 11 7 5 6 3 0 1 1 7 10 7 8 2 0 3 -3 1 10 13 16 12 9 10 6 4 4 4 10 11 5 4 6 5
11 11 11 12 12 11 10 10 10 11 11 11 13 13 13 14 13 12 13 11 11 10 9 9 9 10 10 9 10 10 10 10 10 8 8 6 4 4 4 6 6 6 6 5 6 8 9 10 8 7 6 6 7 9 12 10 9 8 6 4 1 1 -0 4 10 8 6 3 -1 -2 -3 2 7 12 19 12 8 11 7 6 10 11 12 10 3 2 4 4
11 11 11 12 13 13 12 11 10 9 9 10 10 11 11 12 12 12 13 12 12 12 11 10 10 11 10 9 9 9 9 10 10 10 10 9 8 6 4 4 4 6 7 6 5 5 7 9 9 10 9 8 6 5 9 9 10 10 10 9 3 2 0 0 10 9 -2 1 -2 -7 7 12 2 11 24 15 9 15 15 8 6 12 12 5 4 6 5 3
12 11 11 12 14 15 14 13 13 12 11 11 10 10 9 10 10 10 10 11 10 10 10 9 9 9 8 8 9 9 9 10 10 11 11 9 8 8 6 6 5 4 5 6 6 5 6 6 6 9 10 10 7 4 7 9 9 8 9 11 7 7 3 -5 8 12 -4 -1 2 -3 9 3 -10 11 25 17 15 13 12 8 -1 4 9 6 8 9 5 5
15 14 13 14 13 15 15 14 14 14 13 13 13 12 11 11 10 10 11 11 10 10 10 9 8 7 7 8 8 7 8 8 9 11 12 11 9 8 7 8 8 7 6 6 6 6 7 6 5 7 8 10 11 8 5 6 8 8 6 9 11 9 3 -4 6 15 3 -0 6 3 1 -6 -8 6 5 5 17 8 -0 8 6 2 6 9 8 5 9 13
18 17 16 15 13 13 14 13 12 13 13 12 13 13 12 13 12 12 12 12 12 12 11 11 10 10 10 10 9 10 11 10 9 10 13 12 11 10 8 7 7 8 8 6 6 7 7 7 5 4 5 7 10 10 6 5 6 8 8 7 10 9 7 5 3 10 9 -2 1 3 -4 -0 7 6 3 10 21 13 3 11 12 6 8 11 8 10 21 17
16 16 14 13 13 12 12 12 11 12 13 12 13 14 13 13 13 14 13 14 14 12 13 13 12 14 13 12 13 13 11 12 11 9 12 13 12 12 10 8 7 6 7 8 6 6 6 7 7 5 5 5 8 10 9 7 4 6 9 6 8 11 13 12 -2 1 14 1 -1 10 2 1 7 3 10 23 25 17 10 13 14 10 9 10 13 18 17 6
14 13 13 13 12 12 12 13 12 11 14 15 13 14 15 15 15 15 14 16 15 11 13 13 11 16 17 13 15 14 12 16 17 11 9 14 13 13 13 11 10 7 6 8 6 7 7 6 7 6 6 4 5 9 9 9 5 3 7 7 8 9 14 17 -1 -7 7 -4 -6 20 19 5 4 2 4 14 21 18 10 11 13 11 9 10 16 14 0 -5
15 15 16 15 14 14 13 14 15 13 13 15 14 13 15 16 16 17 15 16 15 10 13 16 12 14 16 13 13 14 11 13 19 13 9 15 14 13 16 13 12 11 8 6 3 5 7 7 7 6 7 6 4 6 8 11 9 3 4 7 7 5 10 19 9 -0 6 -6 -18 1 17 13 6 3 2 7 15 16 15 14 11 9 8 10 13 5 -6 -1
14 14 15 15 15 14 12 13 15 15 13 15 17 15 17 16 16 20 17 16 16 10 11 16 14 11 13 15 16 17 12 7 13 11 9 19 15 11 18 17 14 13 12 11 6 4 6 6 8 7 6 7 5 5 6 8 11 7 4 4 7 7 7 13 14 9 11 6 -12 -20 -4 11 9 6 10 13 13 15 18 16 12 13 11 7 7 4 4 11
14 13 13 15 16 15 15 14 14 15 14 15 16 16 18 17 16 18 16 16 17 13 11 11 12 12 12 14 12 13 13 9 12 10 5 16 17 13 19 19 16 16 16 16 11 8 7 2 4 5 6 6 6 6 5 5 9 9 6 3 5 7 5 7 11 8 5 7 1 -7 -5 2 5 10 10 5 10 23 26 13 7 12 12 6 4 6 11 14
18 16 15 15 15 16 16 15 15 13 12 15 16 14 15 16 15 15 16 17 15 13 15 11 9 9 12 16 13 14 16 13 17 16 8 13 13 10 16 19 18 18 18 17 14 15 14 10 9 5 3 5 4 6 6 4 6 7 7 6 3 4 3 5 10 9 2 0 2 2 -2 -10 -12 -0 7 -0 1 17 23 14 11 14 13 12 10 6 7 10
19 17 15 13 13 14 14 15 15 14 15 15 12 10 12 15 17 16 15 16 12 9 12 12 10 10 12 15 16 18 20 20 23 21 15 14 8 5 13 20 19 15 17 17 14 13 11 14 20 14 10 9 4 5 7 4 4 5 7 7 4 5 8 6 8 9 3 -0 -2 -3 -4 -7 -13 -12 0 4 -3 4 14 14 18 17 10 11 11 2 0 7
16 13 11 10 10 11 14 18 18 16 17 14 8 7 10 16 23 20 12 8 7 6 8 9 14 19 15 11 14 13 12 15 18 17 20 20 17 17 18 16 15 12 15 17 13 12 10 8 12 13 15 18 10 6 8 6 4 4 9 13 8 6 8 7 6 10 11 8 7 2 -3 -3 -8 -18 -14 -3 -4 0 11 14 16 14 9 12 14 7 5 9
10 7 6 6 8 8 12 20 24 21 16 11 8 4 8 17 19 13 10 8 5 7 10 8 9 16 15 13 12 6 5 13 12 11 19 20 19 19 13 11 14 11 11 17 15 16 16 12 16 21 20 24 23 14 12 12 11 9 6 8 9 5 5 5 4 8 8 7 13 14 4 -5 -5 -10 -15 -5 6 4 -0 1 5 9 14 16 16 16 13 9
10 6 6 8 10 11 13 19 25 22 14 11 9 5 10 18 7 -3 3 11 11 10 12 12 9 9 9 6 2 -3 1 8 5 3 7 13 21 21 11 11 16 12 7 13 17 18 17 12 15 20 13 13 19 17 17 15 11 12 7 5 8 4 2 3 2 7 12 11 14 18 12 2 -0 -1 -11 -10 6 7 -2 -1 -3 -3 14 23 18 21 20 10
14 12 12 11 11 12 15 18 19 16 12 11 10 7 10 13 4 -1 6 15 22 20 14 16 14 11 9 5 3 2 3 5 6 3 -1 4 14 13 7 8 12 16 13 11 15 19 21 14 6 9 10 12 16 16 24 23 9 9 9 7 10 7 8 10 0 2 16 26 30 30 27 18 7 6 -2 -15 -10 -3 -3 5 -3 -23 -9 17 15 16 22 15
16 16 14 11 10 12 17 19 13 11 11 10 10 10 11 11 8 11 15 15 15 11 9 14 11 10 16 19 17 9 8 12 8 3 5 10 10 1 -3 4 9 14 16 15 15 12 16 19 18 21 20 18 13 2 12 28 23 19 16 14 17 11 9 16 13 4 1 8 18 21 27 31 24 19 11 -3 -5 -1 -6 -3 3 -15 -19 6 13 10 17 13
13 14 13 11 10 12 18 19 12 11 12 10 10 9 9 12 12 16 19 15 7 0 4 11 10 12 12 12 16 10 13 22 13 13 18 10 9 10 4 4 5 7 10 14 17 14 13 16 20 25 19 17 14 -5 -6 12 17 22 26 24 28 25 15 12 14 12 2 -3 2 6 13 27 34 34 30 23 18 8 -12 -21 -5 -1 -9 -3 -2 -9 2 9
11 12 15 14 11 12 17 18 13 11 11 11 13 8 6 12 13 12 12 13 14 10 7 7 14 21 4 -12 -0 6 8 12 10 24 28 -1 -9 6 9 9 10 11 11 7 9 14 16 15 12 16 19 23 27 12 1 9 14 20 22 15 15 22 30 28 15 8 3 -3 -0 3 -0 5 21 31 27 25 28 22 5 -8 -6 3 6 5 -6 -21 -17 -5
10 13 16 14 12 14 18 18 14 11 11 10 11 9 10 16 15 11 9 10 14 14 11 12 16 19 6 -7 2 8 8 8 3 12 19 3 -3 1 5 10 12 16 18 12 10 10 13 17 12 8 7 16 34 28 8 16 34 32 17 11 9 2 13 32 30 21 13 0 -2 4 -3 -10 1 17 18 17 29 38 33 23 17 15 16 12 4 -3 -8 -12
12 16 17 13 14 17 18 18 14 14 15 11 9 10 10 12 13 14 13 11 13 12 12 16 12 8 8 8 8 8 10 12 11 11 8 3 4 3 5 8 6 10 13 11 12 9 10 18 20 16 3 3 28 28 -1 0 27 30 5 -2 12 4 -6 9 19 24 28 17 6 5 5 4 -3 -5 6 12 14 27 34 35 37 26 11 9 13 19 14 7
19 19 17 16 16 15 14 15 14 14 15 12 13 14 10 8 11 15 15 13 14 13 10 12 11 12 15 11 5 7 10 7 10 20 15 4 5 8 9 9 6 6 5 5 8 8 9 12 16 23 12 -0 10 13 -0 -7 6 26 13 -12 1 13 1 1 9 14 26 30 23 6 -2 15 19 1 0 3 -3 10 26 31 41 32 9 10 19 16 10 2
19 20 20 17 14 12 12 15 16 14 13 14 15 14 11 10 13 14 14 13 13 11 9 11 14 16 14 8 3 7 12 8 7 13 10 1 3 8 8 8 9 8 5 6 8 7 9 9 10 18 18 9 5 6 9 1 -4 19 23 -8 -9 8 1 -3 8 12 12 22 35 27 1 -2 14 16 13 11 -0 1 14 24 39 32 5 -1 4 0 3 3
20 23 21 13 10 13 14 17 18 11 10 14 14 12 12 12 11 9 8 10 10 8 7 8 10 10 8 6 6 7 7 6 5 7 6 2 3 8 8 7 7 6 5 6 7 7 8 9 10 11 16 18 10 5 10 7 -1 6 15 5 -3 2 -1 -7 3 10 4 5 18 33 25 -4 -9 13 22 18 6 -5 3 25 44 38 9 -3 0 -3 4 14
24 20 16 13 13 14 11 13 16 12 12 12 9 11 11 7 8 8 7 8 8 5 5 7 8 7 7 6 6 6 5 4 4 6 7 4 3 6 7 6 5 4 6 7 7 8 6 7 9 6 11 21 18 13 8 7 9 2 6 19 8 -3 0 -2 -1 1 0 5 3 15 33 6 -16 8 24 24 18 3 2 17 36 45 22 2 14 16 10 20
20 14 14 17 17 14 11 12 14 12 11 7 6 10 11 8 9 9 9 9 8 6 6 8 8 6 7 9 6 6 7 7 8 7 7 6 7 9 7 7 8 7 8 8 6 7 5 6 9 5 7 14 18 20 7 -2 11 8 2 15 10 -1 4 7 7 3 0 9 0 5 35 22 -8 -2 12 23 19 6 17 16 11 40 37 -2 4 18 5 9
15 15 15 13 13 13 11 9 8 7 6 6 9 11 10 10 10 8 9 11 8 8 7 8 10 8 7 8 7 8 8 7 7 6 8 10 11 15 14 13 14 12 13 13 9 8 8 7 9 6 6 8 9 20 15 -4 1 11 11 11 6 6 10 8 6 2 3 10 -3 -1 28 30 5 -12 -4 20 8 -9 20 18 -9 30 55 14 -3 9 3 -3
13 17 16 11 11 13 9 4 3 4 6 8 10 9 8 8 6 5 10 11 7 8 9 9 10 9 9 9 8 9 9 9 11 11 14 15 13 16 19 17 16 13 14 16 15 15 14 10 7 6 7 6 3 12 20 8 -5 2 15 12 1 3 13 12 2 -4 4 10 -1 1 17 19 3 -21 -12 18 4 -13 14 11 -8 23 43 21 8 10 15 19
10 12 15 15 13 9 3 2 3 3 6 8 6 6 6 5 4 5 9 11 9 9 9 9 10 9 10 9 8 9 10 12 16 18 18 21 20 19 22 24 27 25 21 23 24 25 26 20 14 16 14 7 5 6 13 20 9 -1 6 11 1 -2 9 15 3 -4 5 5 -3 2 10 17 7 -24 -17 11 -5 -10 18 12 5 20 12 4 12 5 2 12
14 10 10 18 24 17 3 1 4 3 5 8 5 3 4 5 7 8 8 10 10 11 11 9 10 10 10 11 11 13 17 16 18 20 19 19 19 16 17 20 28 35 34 30 26 26 31 28 24 33 32 15 8 7 6 16 20 9 2 7 8 1 6 16 6 -4 6 6 -0 -2 -6 11 22 -13 -20 9 -3 -13 9 8 4 14 9 7 13 9 4 4
22 17 10 15 26 23 8 2 5 5 7 8 5 5 7 9 12 10 9 12 11 11 13 11 11 12 11 15 17 17 21 21 19 18 13 11 12 12 12 9 12 29 35 26 22 25 29 29 26 37 49 35 17 14 14 11 16 18 6 1 10 6 3 15 7 -7 7 13 4 -3 -19 -4 32 14 -14 6 12 -7 -8 -2 -3 -1 8 13 7 3 8 9
21 22 18 15 19 20 13 10 12 12 14 13 12 13 13 12 13 11 10 12 11 10 13 12 13 15 15 17 19 19 21 18 13 8 2 2 6 9 15 12 9 25 35 25 20 24 24 26 23 27 46 50 32 26 33 24 14 21 15 0 4 2 -0 19 15 -6 5 17 4 -5 -15 -12 16 23 4 4 12 4 -4 -1 -3 -8 2 11 3 1 7 6
14 17 18 18 18 18 17 17 19 19 19 17 14 15 14 10 11 13 12 14 15 15 16 14 12 15 17 17 17 17 15 9 5 3 -1 4 8 7 12 15 12 21 32 27 17 13 12 18 20 17 28 42 35 27 40 42 25 19 18 11 5 -5 -12 5 14 1 3 14 4 -10 -14 -10 -1 13 25 21 9 5 5 1 -9 -17 -6 4 -2 -5 -4 -4
Height
5862 5862 5862 5861 5861 5861 5861 5861 5861 5861 5861 5862 5862 5862 5862 5862 5863 5863 5864 5864 5865 5866 5866 5866 5867 5868 5868 5869 5869 5869 5870 5871 5871 5872 5872 5873 5874 5875 5875 5876 5877 5878 5879 5880 5881 5882 5883 5884 5884 5886 5888 5889 5891 5892 5893 5895 5896 5897 5897 5898 5898 5898 5898 5899 5899 5900 5901 5902 5902 5903 5904 5904 5906 5907 5905 5904 5904 5903 5905 5908 5908 5908 5909 5909 5909 5909 5910 5910
5860 5859 5859 5859 5859 5859 5859 5859 5859 5859 5859 5859 5859 5860 5860 5860 5860 5861 5861 5862 5863 5863 5864 5864 5865 5866 5867 5867 5867 5868 5869 5869 5870 5870 5870 5871 5873 5873 5874 5875 5876 5877 5878 5879 5880 5881 5882 5883 5883 5885 5886 5888 5890 5891 5892 5894 5895 5896 5897 5898 5898 5898 5898 5899 5899 5900 5900 5902 5903 5904 5903 5903 5905 5906 5903 5902 5903 5904 5906 5908 5909 5909 5909 5909 5910 5910 5910 5910
5858 5857 5857 5857 5856 5856 5856 5856 5856 5856 5856 5856 5857 5857 5857 5858 5858 5858 5859 5859 5860 5861 5861 5862 5863 5864 5865 5865 5866 5867 5867 5868 5868 5868 5869 5870 5871 5872 5873 5874 5875 5876 5877 5878 5879 5880 5881 5882 5883 5884 5885 5886 5888 5890 5891 5892 5894 5896 5896 5897 5898 5898 5899 5900 5900 5900 5901 5902 5902 5903 5903 5902 5904 5905 5904 5904 5904 5906 5907 5908 5909 5909 5909 5910 5910 5911 5911 5911
5856 5855 5855 5854 5854 5854 5854 5854 5854 5854 5854 5854 5854 5855 5855 5855 5856 5856 5856 5857 5858 5858 5859 5860 5860 5861 5862 5863 5864 5865 5866 5867 5865 5865 5868 5868 5869 5871 5872 5873 5874 5875 5876 5877 5878 5879 5880 5881 5882 5883 5884 5885 5887 5888 5890 5891 5893 5895 5896 5897 5898 5899 5900 5900 5900 5900 5901 5902 5902 5903 5903 5903 5904 5905 5905 5906 5907 5907 5908 5909 5909 5910 5910 5911 5911 5911 5911 5912
5854 5853 5853 5852 5852 5852 5852 5851 5851 5851 5852 5852 5852 5852 5853 5853 5853 5854 5854 5854 5855 5856 5857 5857 5858 5859 5860 5861 5862 5863 5865 5865 5863 5864 5867 5867 5868 5869 5870 5871 5872 5873 5874 5876 5877 5878 5879 5880 5881 5882 5883 5885 5886 5887 5888 5890 5892 5894 5895 5897 5898 5899 5900 5900 5901 5901 5901 5902 5902 5904 5904 5904 5905 5906 5907 5907 5908 5908 5909 5909 5910 5911 5911 5911 5912 5912 5912 5912
5852 5851 5851 5850 5850 5850 5849 5849 5849 5849 5849 5849 5850 5850 5850 5850 5851 5851 5852 5852 5852 5853 5854 5855 5856 5856 5858 5858 5860 5861 5863 5863 5862 5863 5865 5864 5866 5867 5868 5869 5870 5871 5873 5874 5875 5876 5877 5878 5880 5881 5882 5883 5885 5886 5887 5889 5891 5892 5894 5897 5898 5898 5899 5900 5901 5901 5902 5902 5902 5904 5905 5906 5906 5907 5908 5908 5909 5909 5909 5910 5910 5911 5911 5911 5912 5912 5912 5913
5849 5849 5848 5848 5848 5847 5847 5847 5847 5847 5847 5847 5847 5847 5848 5848 5848 5849 5849 5850 5850 5851 5852 5853 5853 5854 5855 5856 5857 5858 5861 5862 5860 5861 5863 5863 5864 5866 5867 5867 5868 5870 5871 5872 5873 5875 5876 5877 5878 5880 5881 5882 5884 5884 5886 5888 5890 5891 5893 5896 5897 5898 5898 5900 5901 5901 5902 5903 5903 5904 5905 5905 5906 5907 5908 5909 5910 5908 5909 5910 5910 5911 5912 5912 5912 5913 5913 5913
5846 5846 5846 5845 5845 5845 5845 5844 5844 5844 5844 5844 5844 5845 5845 5845 5846 5846 5847 5847 5848 5849 5849 5850 5851 5852 5853 5854 5855 5856 5859 5860 5857 5858 5861 5861 5862 5864 5865 5866 5867 5868 5869 5870 5872 5873 5874 5876 5877 5878 5879 5880 5882 5882 5884 5886 5889 5890 5891 5894 5896 5897 5897 5899 5901 5901 5902 5903 5903 5904 5905 5904 5904 5905 5907 5908 5908 5908 5910 5911 5910 5911 5912 5912 5913 5913 5913 5913
5844 5843 5843 5842 5842 5842 5842 5842 5841 5841 5841 5841 5841 5842 5842 5842 5843 5843 5844 5845 5845 5846 5847 5848 5849 5850 5850 5851 5853 5854 5856 5856 5854 5856 5859 5859 5860 5862 5863 5864 5864 5865 5867 5869 5870 5871 5873 5875 5876 5877 5878 5878 5879 5881 5883 5885 5888 5889 5890 5892 5894 5896 5896 5897 5900 5901 5901 5903 5903 5904 5905 5905 5905 5904 5904 5905 5906 5908 5911 5911 5910 5911 5912 5912 5913 5913 5913 5913
5841 5840 5840 5839 5839 5839 5839 5839 5838 5838 5838 5838 5838 5839 5839 5840 5840 5841 5841 5842 5843 5844 5844 5845 5846 5847 5848 5849 5850 5852 5854 5853 5853 5855 5856 5857 5858 5859 5861 5862 5862 5863 5865 5866 5868 5870 5871 5873 5874 5875 5876 5877 5878 5880 5882 5885 5886 5887 5888 5890 5892 5893 5895 5896 5898 5901 5902 5902 5903 5904 5905 5906 5906 5906 5906 5906 5907 5909 5910 5911 5910 5911 5912 5913 5913 5913 5913 5914
5837 5837 5836 5836 5836 5836 5835 5835 5835 5835 5835 5835 5835 5835 5836 5836 5837 5838 5838 5839 5840 5841 5841 5842 5843 5844 5846 5847 5848 5850 5850 5850 5851 5852 5854 5855 5856 5857 5858 5860 5860 5861 5863 5864 5866 5868 5869 5870 5871 5873 5874 5875 5877 5879 5881 5883 5885 5887 5888 5891 5893 5893 5895 5896 5896 5899 5903 5901 5901 5903 5905 5907 5907 5908 5909 5909 5909 5909 5910 5910 5911 5911 5912 5913 5914 5914 5914 5914
5833 5833 5832 5832 5832 5832 5832 5832 5832 5832 5832 5832 5832 5832 5833 5833 5834 5835 5835 5836 5836 5837 5838 5839 5840 5841 5843 5844 5846 5847 5847 5848 5850 5850 5851 5852 5854 5855 5856 5857 5858 5859 5860 5862 5863 5865 5867 5868 5870 5871 5873 5873 5875 5877 5878 5881 5884 5886 5888 5891 5893 5894 5895 5896 5894 5896 5901 5902 5901 5902 5903 5905 5907 5908 5909 5909 5909 5909 5910 5911 5911 5912 5913 5914 5914 5914 5914 5914
5829 5828 5828 5828 5828 5828 5828 5828 5828 5828 5828 5828 5829 5829 5829 5830 5831 5831 5832 5833 5833 5834 5835 5836 5837 5838 5840 5841 5843 5844 5845 5846 5847 5848 5849 5850 5851 5852 5854 5855 5856 5857 5858 5859 5861 5863 5864 5866 5868 5870 5871 5872 5873 5875 5877 5880 5882 5884 5886 5889 5891 5893 5895 5895 5893 5893 5897 5901 5901 5901 5902 5903 5905 5907 5907 5908 5909 5909 5910 5910 5912 5913 5913 5914 5914 5914 5914 5914
5824 5824 5823 5823 5823 5823 5823 5824 5824 5825 5825 5825 5825 5825 5826 5826 5827 5828 5828 5829 5830 5831 5832 5833 5834 5835 5837 5838 5840 5841 5843 5844 5845 5846 5846 5847 5849 5850 5851 5852 5853 5855 5856 5857 5859 5860 5862 5863 5866 5867 5869 5871 5872 5874 5877 5880 5881 5883 5885 5887 5890 5893 5895 5894 5893 5891 5893 5898 5901 5901 5902 5903 5904 5905 5906 5907 5908 5909 5910 5910 5911 5912 5913 5914 5914 5914 5914 5914
5820 5819 5819 5818 5818 5818 5818 5819 5820 5820 5820 5821 5821 5821 5822 5822 5823 5824 5825 5825 5826 5827 5828 5830 5831 5832 5834 5835 5836 5838 5840 5841 5842 5843 5844 5845 5846 5847 5849 5850 5851 5853 5854 5855 5856 5858 5859 5861 5863 5865 5867 5869 5870 5873 5876 5878 5880 5882 5884 5887 5889 5892 5894 5893 5893 5892 5890 5894 5898 5899 5901 5903 5904 5905 5905 5906 5907 5908 5909 5910 5911 5912 5913 5913 5914 5914 5914 5914
5815 5815 5814 5814 5814 5814 5814 5814 5815 5815 5816 5816 5817 5817 5818 5818 5819 5820 5821 5822 5823 5824 5825 5826 5827 5829 5830 5831 5833 5835 5836 5838 5839 5840 5841 5842 5843 5845 5846 5848 5849 5850 5851 5852 5854 5855 5857 5859 5861 5863 5864 5866 5868 5871 5873 5875 5878 5882 5884 5886 5888 5890 5892 5892 5893 5892 5889 5891 5894 5896 5898 5901 5903 5904 5905 5906 5906 5907 5908 5909 5910 5911 5912 5912 5913 5914 5914 5914
5811 5811 5810 5809 5809 5809 5809 5809 5810 5810 5811 5812 5812 5813 5814 5814 5815 5816 5817 5818 5818 5820 5821 5822 5824 5826 5827 5827 5829 5830 5832 5834 5836 5837 5838 5840 5841 5842 5843 5845 5846 5847 5848 5849 5851 5853 5854 5856 5858 5860 5862 5863 5866 5868 5870 5874 5878 5881 5882 5884 5886 5888 5890 5891 5893 5892 5889 5888 5891 5894 5896 5898 5902 5903 5904 5905 5906 5906 5907 5907 5908 5910 5911 5911 5912 5913 5913 5913
5807 5806 5806 5805 5804 5804 5805 5805 5805 5805 5806 5807 5808 5808 5809 5810 5811 5812 5812 5813 5814 5816 5817 5818 5820 5821 5822 5824 5825 5826 5828 5830 5832 5834 5835 5837 5838 5839 5840 5842 5843 5844 5846 5847 5849 5850 5852 5853 5855 5857 5859 5861 5864 5866 5870 5875 5877 5878 5879 5881 5883 5885 5887 5890 5893 5893 5890 5888 5888 5892 5895 5896 5898 5900 5902 5904 5904 5905 5906 5906 5906 5908 5909 5910 5910 5911 5912 5913
5802 5802 5801 5801 5800 5800 5800 5800 5800 5800 5801 5802 5803 5804 5804 5805 5807 5807 5808 5809 5810 5811 5813 5814 5816 5817 5819 5820 5821 5822 5824 5826 5828 5830 5831 5833 5834 5836 5837 5838 5840 5841 5843 5844 5846 5847 5849 5850 5852 5855 5858 5861 5863 5865 5869 5872 5872 5873 5875 5878 5880 5882 5885 5889 5892 5893 5893 5890 5887 5891 5894 5894 5896 5898 5901 5902 5902 5903 5903 5904 5905 5906 5908 5909 5909 5911 5912 5913
5798 5797 5797 5796 5796 5796 5796 5796 5796 5796 5796 5797 5798 5799 5800 5800 5802 5803 5803 5805 5806 5807 5808 5810 5811 5812 5815 5816 5817 5818 5820 5821 5823 5826 5827 5829 5831 5832 5834 5835 5836 5838 5840 5841 5843 5844 5845 5847 5849 5853 5857 5860 5861 5863 5866 5867 5868 5870 5872 5873 5876 5878 5881 5886 5890 5892 5893 5891 5889 5892 5893 5892 5894 5897 5900 5901 5901 5901 5901 5902 5904 5905 5907 5907 5909 5910 5911 5912
5794 5793 5792 5792 5791 5791 5791 5792 5792 5792 5792 5792 5793 5794 5795 5796 5798 5798 5799 5800 5801 5803 5804 5805 5807 5808 5811 5812 5812 5814 5816 5817 5819 5822 5823 5824 5826 5828 5830 5831 5833 5835 5836 5838 5839 5841 5842 5844 5848 5852 5854 5856 5858 5860 5862 5864 5865 5867 5869 5870 5872 5875 5879 5883 5887 5891 5892 5891 5890 5892 5892 5892 5893 5895 5897 5899 5900 5901 5901 5901 5902 5903 5905 5906 5907 5909 5910 5911
5789 5789 5788 5788 5787 5787 5787 5787 5787 5787 5788 5788 5788 5789 5790 5792 5793 5794 5795 5796 5797 5798 5800 5801 5803 5804 5806 5808 5808 5810 5811 5812 5814 5817 5819 5820 5822 5824 5826 5828 5829 5831 5833 5834 5836 5837 5839 5842 5846 5849 5851 5853 5855 5857 5859 5861 5862 5864 5866 5868 5870 5874 5878 5881 5885 5889 5891 5890 5890 5890 5890 5891 5893 5893 5895 5897 5898 5900 5900 5900 5901 5901 5903 5904 5906 5907 5908 5909
5785 5785 5784 5783 5783 5783 5782 5782 5783 5783 5783 5784 5784 5784 5785 5787 5788 5789 5790 5791 5793 5794 5795 5796 5798 5800 5802 5803 5804 5806 5807 5808 5810 5813 5814 5815 5817 5820 5822 5824 5825 5827 5829 5831 5832 5834 5837 5841 5844 5846 5848 5849 5851 5854 5856 5858 5859 5861 5863 5865 5868 5872 5876 5879 5883 5888 5891 5890 5889 5889 5889 5889 5890 5892 5893 5895 5897 5898 5898 5899 5900 5900 5901 5902 5904 5905 5906 5908
5781 5781 5780 5779 5779 5779 5779 5778 5779 5779 5779 5780 5780 5780 5781 5782 5783 5784 5786 5787 5788 5790 5791 5792 5794 5796 5798 5798 5799 5802 5802 5803 5806 5809 5809 5810 5813 5816 5818 5819 5821 5823 5825 5827 5829 5831 5834 5837 5840 5842 5844 5845 5847 5850 5853 5855 5856 5859 5861 5864 5866 5870 5874 5877 5880 5884 5888 5889 5888 5887 5888 5887 5887 5891 5892 5893 5895 5895 5896 5898 5898 5900 5901 5901 5902 5904 5905 5908
5778 5777 5776 5776 5775 5776 5775 5775 5775 5775 5775 5775 5776 5776 5777 5777 5778 5780 5781 5782 5784 5786 5787 5788 5790 5791 5792 5794 5795 5797 5797 5798 5801 5805 5805 5806 5809 5811 5813 5815 5817 5819 5821 5823 5825 5827 5830 5833 5835 5837 5840 5842 5844 5847 5850 5852 5854 5856 5859 5862 5865 5868 5872 5875 5876 5879 5882 5885 5886 5885 5885 5885 5886 5890 5891 5892 5893 5894 5895 5897 5897 5898 5899 5900 5901 5903 5905 5907
5775 5774 5773 5773 5772 5772 5772 5771 5771 5772 5772 5772 5773 5773 5773 5774 5774 5775 5777 5778 5780 5782 5783 5784 5786 5787 5788 5790 5791 5792 5793 5795 5796 5799 5801 5802 5804 5806 5808 5810 5812 5814 5816 5818 5820 5823 5826 5829 5831 5833 5836 5839 5841 5844 5847 5848 5850 5853 5856 5860 5862 5866 5870 5872 5873 5874 5877 5881 5882 5881 5883 5883 5883 5887 5888 5889 5891 5892 5894 5895 5896 5897 5898 5899 5900 5902 5904 5906
5771 5770 5770 5769 5769 5768 5768 5768 5768 5768 5769 5768 5769 5770 5770 5770 5771 5772 5773 5774 5776 5778 5779 5781 5782 5783 5784 5785 5787 5788 5790 5791 5791 5794 5796 5797 5799 5801 5802 5805 5808 5809 5810 5812 5815 5819 5822 5825 5827 5829 5832 5835 5838 5841 5844 5845 5847 5850 5854 5857 5859 5862 5866 5870 5871 5872 5873 5876 5877 5877 5880 5881 5880 5883 5885 5886 5888 5889 5891 5894 5896 5897 5897 5899 5900 5902 5904 5906
5768 5767 5766 5766 5766 5765 5764 5765 5765 5765 5765 5765 5766 5766 5767 5767 5768 5769 5770 5771 5772 5773 5775 5777 5778 5779 5781 5781 5782 5784 5785 5787 5787 5790 5793 5793 5795 5797 5797 5800 5802 5804 5805 5807 5811 5814 5817 5820 5822 5823 5826 5830 5835 5838 5841 5842 5843 5847 5852 5853 5855 5858 5862 5866 5870 5871 5872 5873 5873 5874 5876 5877 5877 5881 5883 5883 5885 5887 5890 5894 5896 5896 5896 5898 5900 5902 5903 5905
5765 5764 5763 5763 5763 5762 5762 5762 5762 5762 5762 5762 5763 5763 5764 5764 5765 5766 5767 5768 5769 5769 5771 5774 5775 5776 5777 5778 5779 5780 5781 5783 5783 5786 5790 5790 5790 5793 5793 5795 5797 5799 5801 5803 5806 5810 5813 5814 5815 5817 5821 5826 5831 5834 5836 5839 5841 5844 5848 5849 5851 5854 5857 5859 5862 5865 5867 5867 5869 5872 5873 5874 5876 5879 5880 5880 5882 5885 5889 5892 5894 5894 5894 5896 5898 5900 5902 5903
5762 5761 5760 5760 5760 5760 5759 5759 5759 5759 5760 5760 5760 5761 5761 5762 5763 5764 5765 5766 5766 5766 5767 5769 5771 5773 5774 5774 5776 5777 5777 5779 5781 5783 5786 5787 5787 5788 5789 5791 5792 5793 5796 5799 5803 5806 5809 5811 5812 5814 5817 5821 5826 5829 5832 5835 5837 5839 5843 5846 5848 5849 5852 5853 5855 5859 5860 5860 5866 5871 5870 5870 5872 5875 5876 5878 5880 5884 5887 5889 5891 5892 5892 5894 5896 5898 5900 5902
5760 5759 5758 5758 5757 5757 5757 5756 5756 5757 5757 5758 5758 5759 5760 5760 5761 5762 5762 5763 5764 5764 5764 5765 5768 5771 5771 5771 5772 5774 5775 5776 5778 5779 5781 5783 5783 5784 5785 5785 5786 5789 5793 5795 5798 5800 5804 5808 5810 5812 5815 5818 5821 5824 5827 5831 5833 5835 5839 5842 5845 5846 5848 5849 5851 5854 5856 5857 5863 5869 5869 5867 5869 5871 5873 5876 5880 5882 5884 5886 5889 5891 5891 5893 5895 5897 5899 5901
5758 5757 5756 5756 5755 5755 5754 5754 5754 5754 5755 5756 5757 5758 5758 5758 5759 5759 5759 5760 5760 5760 5761 5763 5765 5768 5769 5768 5769 5771 5773 5773 5775 5776 5778 5779 5781 5781 5779 5779 5782 5787 5789 5790 5792 5795 5799 5803 5805 5808 5812 5814 5817 5821 5823 5826 5828 5832 5836 5839 5840 5842 5844 5845 5846 5849 5852 5855 5861 5867 5868 5864 5865 5869 5871 5873 5876 5879 5881 5883 5886 5889 5891 5892 5894 5896 5897 5898
5756 5755 5755 5754 5753 5753 5752 5752 5752 5752 5753 5754 5755 5756 5756 5756 5756 5756 5756 5756 5757 5758 5759 5762 5764 5765 5765 5766 5767 5769 5770 5771 5773 5775 5776 5777 5779 5775 5773 5776 5780 5783 5785 5787 5790 5793 5796 5799 5802 5805 5807 5809 5812 5817 5819 5821 5825 5828 5830 5833 5835 5837 5839 5841 5842 5844 5849 5853 5858 5865 5865 5861 5862 5868 5872 5873 5874 5875 5877 5880 5883 5887 5890 5891 5892 5894 5895 5896
5754 5753 5753 5752 5751 5750 5750 5749 5750 5750 5751 5752 5753 5753 5753 5753 5752 5752 5752 5754 5755 5757 5758 5760 5762 5763 5763 5764 5765 5766 5768 5769 5771 5773 5774 5775 5775 5771 5770 5775 5778 5779 5783 5786 5787 5789 5792 5795 5797 5798 5800 5804 5809 5814 5816 5817 5819 5822 5825 5828 5831 5833 5836 5839 5840 5841 5846 5850 5855 5861 5860 5858 5861 5867 5872 5876 5875 5873 5874 5877 5881 5885 5888 5889 5890 5891 5893 5894
5752 5751 5750 5749 5749 5748 5748 5748 5748 5748 5749 5750 5750 5750 5750 5750 5750 5751 5751 5753 5755 5755 5756 5758 5759 5760 5761 5762 5763 5764 5766 5767 5768 5770 5771 5772 5770 5767 5770 5774 5776 5778 5781 5783 5784 5785 5788 5790 5790 5790 5794 5800 5805 5809 5811 5813 5815 5818 5822 5825 5828 5832 5836 5838 5839 5840 5844 5847 5850 5853 5854 5855 5860 5866 5871 5876 5876 5874 5873 5874 5877 5882 5885 5887 5889 5891 5891 5892
5750 5749 5748 5747 5746 5746 5746 5746 5746 5747 5747 5748 5748 5748 5748 5748 5749 5750 5750 5752 5754 5754 5754 5756 5757 5758 5759 5759 5760 5762 5763 5763 5765 5766 5769 5769 5765 5764 5769 5772 5773 5775 5777 5779 5780 5780 5784 5788 5788 5789 5792 5796 5798 5800 5803 5807 5812 5816 5819 5822 5826 5831 5834 5835 5837 5839 5841 5841 5844 5847 5849 5852 5856 5860 5866 5871 5873 5873 5873 5871 5872 5877 5882 5885 5888 5889 5890 5892
5748 5747 5746 5745 5745 5744 5744 5744 5744 5745 5745 5745 5746 5745 5746 5747 5747 5748 5749 5750 5751 5753 5753 5753 5755 5756 5756 5757 5757 5759 5760 5760 5762 5762 5764 5764 5761 5763 5768 5769 5769 5771 5774 5777 5776 5776 5781 5786 5786 5788 5790 5790 5791 5794 5797 5801 5807 5814 5817 5821 5825 5828 5830 5831 5833 5835 5837 5838 5841 5845 5848 5850 5851 5855 5860 5865 5869 5870 5872 5871 5870 5872 5877 5881 5885 5888 5889 5891
5746 5745 5744 5743 5743 5742 5742 5742 5743 5743 5743 5743 5744 5743 5744 5745 5746 5747 5747 5748 5749 5750 5750 5751 5753 5754 5753 5754 5755 5755 5755 5757 5758 5758 5758 5759 5758 5761 5765 5764 5765 5769 5772 5774 5773 5774 5778 5780 5783 5785 5786 5787 5789 5794 5798 5800 5804 5812 5817 5818 5821 5824 5825 5827 5828 5830 5832 5835 5839 5843 5846 5848 5850 5852 5856 5860 5863 5866 5869 5870 5868 5868 5873 5877 5881 5885 5887 5890
5745 5743 5742 5741 5741 5741 5740 5740 5741 5741 5741 5741 5742 5742 5743 5744 5744 5745 5746 5746 5747 5748 5748 5749 5751 5751 5751 5751 5752 5752 5752 5753 5755 5756 5756 5755 5756 5759 5761 5761 5762 5766 5769 5769 5769 5771 5772 5775 5781 5783 5782 5786 5790 5794 5797 5798 5800 5807 5813 5814 5815 5817 5819 5822 5824 5826 5829 5832 5836 5840 5843 5846 5849 5852 5854 5856 5859 5862 5864 5867 5865 5865 5870 5875 5878 5880 5883 5886
5743 5742 5741 5740 5739 5739 5739 5739 5739 5740 5740 5740 5740 5741 5741 5742 5742 5743 5744 5744 5745 5746 5746 5747 5748 5749 5749 5749 5749 5750 5750 5751 5752 5754 5754 5753 5754 5757 5758 5758 5759 5761 5764 5765 5765 5767 5769 5771 5777 5780 5781 5784 5788 5789 5791 5791 5791 5797 5803 5806 5809 5812 5814 5817 5818 5821 5825 5828 5832 5837 5840 5844 5849 5853 5855 5854 5856 5857 5859 5862 5863 5863 5867 5872 5874 5875 5877 5883
5740 5740 5739 5738 5738 5738 5738 5738 5738 5738 5739 5739 5739 5739 5740 5740 5741 5742 5742 5742 5743 5744 5744 5745 5745 5747 5748 5748 5748 5748 5749 5749 5750 5752 5752 5750 5752 5754 5755 5756 5756 5757 5760 5761 5763 5765 5767 5768 5772 5776 5777 5779 5783 5786 5787 5788 5789 5791 5795 5799 5803 5806 5809 5812 5815 5818 5821 5824 5828 5834 5839 5843 5847 5851 5854 5853 5853 5854 5855 5859 5861 5861 5864 5867 5869 5870 5873 5879
5739 5738 5738 5737 5737 5737 5737 5737 5737 5737 5738 5738 5738 5738 5739 5739 5740 5740 5741 5741 5742 5742 5742 5743 5744 5745 5745 5746 5746 5746 5748 5748 5747 5748 5747 5747 5750 5751 5751 5752 5753 5754 5756 5757 5759 5763 5764 5763 5766 5770 5772 5774 5779 5784 5786 5787 5788 5790 5794 5797 5798 5801 5804 5807 5810 5814 5818 5822 5826 5831 5837 5843 5846 5848 5850 5851 5851 5852 5852 5855 5859 5858 5859 5863 5865 5867 5870 5875
5738 5737 5737 5737 5737 5736 5736 5736 5736 5736 5737 5737 5738 5738 5738 5738 5739 5739 5739 5740 5740 5740 5740 5741 5742 5742 5743 5743 5743 5743 5744 5744 5744 5744 5744 5744 5747 5748 5747 5748 5749 5749 5751 5753 5755 5758 5759 5758 5760 5763 5767 5772 5775 5781 5785 5785 5783 5784 5788 5788 5790 5796 5798 5798 5800 5806 5812 5818 5823 5827 5832 5841 5846 5847 5848 5849 5850 5852 5851 5852 5856 5856 5855 5858 5863 5864 5867 5871
5738 5737 5737 5737 5737 5736 5736 5736 5736 5736 5736 5737 5737 5737 5737 5738 5738 5738 5738 5739 5739 5739 5739 5739 5740 5740 5740 5741 5741 5740 5740 5741 5741 5741 5741 5741 5742 5743 5743 5744 5744 5744 5746 5747 5749 5752 5752 5753 5755 5758 5763 5767 5771 5776 5779 5777 5775 5777 5779 5780 5784 5790 5791 5791 5795 5802 5808 5813 5817 5821 5827 5837 5844 5844 5845 5847 5849 5850 5850 5850 5853 5855 5853 5853 5857 5860 5864 5867
5739 5738 5738 5737 5737 5737 5736 5736 5736 5736 5736 5736 5736 5737 5737 5737 5737 5737 5737 5737 5737 5737 5737 5737 5737 5737 5737 5737 5737 5737 5737 5738 5737 5737 5738 5737 5738 5738 5738 5739 5739 5739 5740 5740 5742 5744 5744 5747 5752 5754 5757 5762 5766 5769 5769 5767 5768 5772 5777 5780 5783 5783 5784 5788 5795 5800 5803 5808 5813 5817 5823 5831 5837 5839 5841 5844 5845 5845 5847 5847 5849 5853 5853 5851 5851 5855 5859 5862
5739 5739 5738 5738 5737 5737 5736 5736 5736 5736 5736 5736 5736 5736 5736 5737 5737 5736 5736 5736 5735 5735 5735 5734 5734 5734 5734 5734 5734 5733 5733 5733 5733 5733 5733 5733 5733 5732 5732 5733 5732 5733 5734 5734 5735 5736 5737 5741 5746 5747 5750 5756 5760 5762 5764 5764 5765 5768 5772 5777 5779 5779 5780 5786 5792 5793 5796 5802 5808 5813 5817 5823 5828 5831 5835 5839 5840 5840 5842 5843 5843 5846 5850 5851 5851 5851 5853 5855
5740 5739 5738 5738 5738 5737 5737 5737 5737 5737 5736 5736 5736 5736 5735 5736 5735 5735 5735 5734 5733 5733 5733 5732 5731 5731 5731 5731 5730 5730 5730 5729 5729 5729 5728 5728 5728 5727 5727 5727 5725 5726 5727 5727 5728 5729 5729 5734 5738 5738 5743 5749 5751 5754 5758 5758 5759 5762 5766 5771 5774 5775 5777 5782 5786 5788 5791 5798 5803 5807 5811 5816 5820 5824 5827 5831 5835 5836 5837 5838 5838 5839 5841 5843 5845 5848 5851 5853
5741 5739 5738 5738 5737 5737 5737 5737 5737 5736 5736 5736 5736 5735 5734 5734 5734 5733 5733 5732 5731 5731 5730 5729 5729 5728 5728 5727 5726 5726 5725 5725 5724 5724 5723 5722 5722 5721 5721 5721 5720 5720 5721 5721 5721 5721 5721 5725 5728 5729 5734 5739 5741 5745 5749 5749 5751 5757 5762 5765 5766 5768 5772 5776 5780 5783 5788 5795 5800 5804 5808 5812 5815 5817 5820 5825 5830 5833 5833 5834 5834 5835 5835 5835 5837 5840 5844 5848
5741 5739 5738 5737 5737 5737 5737 5737 5737 5736 5736 5735 5735 5734 5733 5733 5732 5732 5731 5730 5729 5728 5728 5727 5726 5725 5725 5724 5723 5722 5721 5721 5720 5719 5719 5718 5717 5716 5715 5714 5714 5713 5714 5714 5714 5713 5714 5717 5719 5720 5724 5728 5731 5735 5738 5741 5745 5751 5756 5759 5760 5762 5766 5771 5777 5781 5785 5793 5799 5802 5805 5807 5809 5811 5813 5818 5824 5828 5829 5829 5830 5832 5833 5834 5834 5834 5837 5840
5741 5739 5738 5737 5737 5736 5737 5737 5736 5736 5735 5735 5734 5734 5733 5732 5731 5730 5729 5728 5727 5726 5725 5724 5723 5723 5722 5721 5720 5719 5718 5717 5716 5716 5715 5714 5713 5711 5710 5710 5709 5708 5708 5708 5708 5708 5709 5711 5712 5711 5714 5719 5722 5724 5728 5734 5739 5744 5750 5755 5757 5760 5763 5769 5776 5780 5784 5792 5796 5797 5798 5800 5802 5804 5805 5808 5815 5821 5823 5824 5825 5827 5830 5832 5832 5832 5835 5838
5741 5740 5739 5738 5737 5737 5737 5736 5736 5735 5735 5734 5733 5732 5731 5730 5729 5728 5727 5726 5725 5723 5722 5721 5720 5720 5719 5717 5716 5716 5715 5714 5714 5713 5712 5711 5709 5708 5707 5707 5707 5705 5704 5704 5704 5704 5706 5706 5706 5706 5707 5711 5715 5715 5719 5726 5732 5737 5744 5750 5754 5758 5761 5766 5772 5776 5781 5787 5789 5790 5794 5795 5793 5792 5794 5797 5805 5812 5816 5818 5819 5821 5825 5829 5831 5832 5833 5836
5742 5741 5739 5738 5737 5737 5736 5736 5735 5735 5734 5733 5732 5731 5730 5729 5728 5726 5725 5724 5723 5721 5720 5719 5718 5716 5715 5714 5713 5713 5712 5712 5711 5710 5709 5708 5707 5706 5705 5705 5704 5703 5702 5701 5701 5702 5702 5703 5703 5702 5702 5706 5709 5709 5711 5715 5719 5725 5735 5745 5753 5757 5759 5762 5767 5772 5777 5782 5784 5787 5789 5787 5782 5783 5786 5790 5795 5802 5809 5812 5813 5815 5819 5824 5828 5831 5832 5835